Details From SEQM - Quito - Mariscal Sucre Intl
To SEGU - Guayauqiil - Simon Bolivar Intl
Flight Number -
Tags decoded
Created
Modified
Stats Distance 169 nm / 312 km
Max Altitude 0 ft / 0 m
Waypoints 4
Social Downloads 0
Likes 0
Share VATSIM

Download

Looking for another format? Having issues loading an existing format? Contact us
Advertisement - Login to hide

Notes

Requested: SEQM QIT UW9 TEMOX W9 EDMIR UW9 SIDAX G437 VULKY SEGU Unmatched points: UW9 TEMOX W9 EDMIR UW9 SIDAX G437

Route

SEQM QIT VULKY SEGU

ID Type Via Altitude Latitude Longitude Leg Dist Tot Dist Heading (true) Name
O SEQM APT - 0 ft / 0 m -0.12409˚ -78.35438˚ - 0 nm - Quito - Mariscal Sucre Intl
QIT VOR - 0 ft / 0 m -0.03861˚ -78.51139˚ 10 nm 10 nm 299° / 299° CONDORCOCHA VOR-DME
VULKY FIX - 0 ft / 0 m -1.46333˚ -79.81472˚ 115 nm 126 nm 222° / 222° -
O SEGU APT - 0 ft / 0 m -2.15742˚ -79.88356˚ 41 nm 168 nm 186° / 186° Guayauqiil - Simon Bolivar Intl

Altitude Profile

Advertisement - Login to hide

Weather


0- 5 10 15 20 25 30 35+ Temperature / ° C

Clouds and Precipitation
Forecast for 2017-12-15 00:00 UTC. Updated a few seconds ago

Ground ~20,000 ft ~40,000 ft Winds

SEQM

Details ICAO SEQM
Name Quito - Mariscal Sucre Intl
Region Equador
Timezone America/Guayaquil (UTC-5.0)
Stats Elevation 7,841 ft / 2,390 m (AMSL)
Location -0.124089° -78.354381°
Runways 1
Magnetic Variation 3.594° W

METAR

SEQM 142300Z 01011KT 9999 FEW033 17/11 Q1023 NOSIG RMK A3020

Decode

TAF

Not found

Departure Runways

ID Width Length Bearing (true) Bearing (mag) Surface Threshold Offset Overrun Length
18 171 ft / 52 m 13,524 ft / 4,122 m 177.61° 181.20° Asphalt 0 ft / 0 m 177 ft / 54 m
36 171 ft / 52 m 13,524 ft / 4,122 m 357.61° 1.20° Asphalt 0 ft / 0 m 184 ft / 56 m

SEGU

Details ICAO SEGU (GYE)
Name Guayauqiil - Simon Bolivar Intl
Region Equador
Timezone America/Guayaquil (UTC-5.0)
Stats Elevation 19 ft / 6 m (AMSL)
Location -2.157419° -79.883559°
Runways 1
Magnetic Variation 2.150° W

METAR

SEGU 142300Z 20008KT 9999 FEW030 SCT100 29/20 Q1008 NOSIG RMK A2977

Decode

TAF

Not found

Destination Runways

ID Width Length Bearing (true) Bearing (mag) Surface Threshold Offset Overrun Length
03 151 ft / 46 m 9,184 ft / 2,799 m 30.43° 32.58° Asphalt 338 ft / 103 m 280 ft / 85 m
21 151 ft / 46 m 9,184 ft / 2,799 m 210.43° 212.58° Asphalt 810 ft / 247 m 230 ft / 70 m

Approach Navaids

Runway Type Ident Frequency Range Bearing (true) Bearing (mag) Slope Elevation
21 Localiser ILG 110.30 MHz 18 nm / 33 km 210.13° 212.28° - 17 ft / 5 m (AMSL)
21 Glidescope ILG 110.30 MHz 10 nm / 19 km 210.43° 212.58° 3.00° 17 ft / 5 m (AMSL)
21 DME ILG 110.30 MHz 18 nm / 33 km - - - 19 ft / 6 m (AMSL)

Popular Alternatives